Wind_Speed
3 3 3 3 4 4 4 4 4 3 4 3 4 4 3 4 4 4 4 4 4 4 4 5 5 6 7 7 7 7 7 8 8 8 9 8 9 8 8 8 8 8 7
4 4 4 4 5 5 5 4 4 4 4 4 4 4 4 5 4 4 4 4 4 5 5 5 6 6 7 8 8 8 8 9 9 9 10 10 10 10 10 10 9 9 9
4 4 5 5 5 6 6 5 5 5 5 5 5 5 5 5 5 5 5 5 5 6 6 6 7 7 8 8 8 8 9 10 10 10 10 10 10 10 10 11 10 10 10
5 5 6 6 6 6 6 6 6 6 7 6 6 6 6 6 6 6 6 6 6 7 7 7 8 8 9 9 9 9 10 10 10 11 11 11 11 12 12 11 11 11 11
6 6 6 7 6 6 7 7 7 7 7 7 7 6 7 7 7 7 6 7 7 8 8 8 9 9 9 9 10 10 10 10 11 11 12 12 12 13 13 13 12 12 12
7 7 7 7 7 7 7 7 7 7 7 7 7 7 7 8 8 8 7 7 7 8 9 9 9 9 10 10 10 10 10 10 11 11 12 12 12 13 13 13 13 13 13
7 7 8 8 7 7 7 7 7 7 7 8 8 8 8 9 9 8 8 8 8 8 8 9 9 9 10 10 10 10 10 10 11 12 12 13 13 13 13 13 14 14 14
8 8 8 8 8 8 8 8 8 8 8 8 8 9 9 9 10 10 9 9 8 8 8 8 9 9 9 10 10 10 10 10 11 11 12 13 13 13 13 13 14 13 14
9 9 8 9 8 8 8 8 8 8 8 8 8 9 9 10 10 10 10 9 8 8 8 8 8 8 8 8 9 9 9 10 10 11 11 12 12 12 12 13 13 13 13
9 9 9 9 9 8 8 8 8 8 8 9 9 9 9 10 10 10 10 9 9 8 8 8 8 7 7 7 8 8 9 9 9 10 10 10 11 11 11 12 12 12 12
9 9 9 9 8 8 8 8 8 8 9 9 9 10 9 9 9 8 9 8 8 8 7 8 8 7 7 7 7 7 7 8 8 9 10 9 9 9 10 11 11 11 12
8 9 8 8 8 8 7 8 8 8 9 9 9 10 9 9 8 8 8 8 8 8 8 7 7 7 6 6 7 7 7 7 7 7 7 8 8 8 9 9 10 10 11
8 8 8 7 7 7 8 8 7 7 8 8 8 9 8 8 8 8 8 8 8 8 8 7 7 6 6 6 6 6 6 6 7 7 7 7 7 7 8 9 9 10 10
7 8 7 7 7 7 8 7 7 7 7 7 7 7 7 7 7 8 8 8 8 8 7 7 7 6 6 6 5 5 5 5 6 6 6 6 6 7 7 8 8 9 9
7 7 7 7 7 8 7 7 7 7 7 7 7 6 6 6 6 7 7 7 8 7 7 7 6 6 6 5 4 4 4 5 5 5 5 5 6 6 7 7 8 8 8
8 7 7 7 7 7 7 7 8 8 7 7 7 7 6 6 6 6 6 6 6 6 5 6 5 5 5 4 4 4 4 4 4 5 5 5 5 6 6 7 7 8 8
8 8 8 7 7 7 7 7 7 8 7 7 6 7 7 6 6 6 5 5 5 4 4 4 5 4 4 4 4 4 4 4 4 5 5 5 5 5 6 7 7 7 8
9 8 8 8 8 7 7 6 7 7 6 6 7 7 6 6 5 5 5 4 4 3 3 4 4 4 4 3 3 3 4 4 4 4 4 4 5 5 6 6 6 7 8
9 9 9 9 8 7 6 6 7 5 5 6 6 5 5 5 4 4 4 4 3 3 3 4 4 4 3 3 3 3 3 3 3 2 3 4 4 5 5 5 6 7 8
10 9 9 10 8 7 7 7 6 6 5 5 5 4 4 4 4 4 4 3 3 3 4 4 3 3 2 2 2 2 2 2 2 2 3 3 4 5 6 6 6 7 8
9 9 9 9 9 7 7 6 6 6 5 5 5 5 4 4 4 4 4 3 3 3 4 3 3 3 2 2 2 1 1 2 2 2 2 3 4 5 6 6 6 7 8
9 9 9 8 9 8 7 7 6 6 6 5 5 5 4 4 4 4 3 4 4 4 4 3 3 2 2 1 1 1 1 1 1 2 2 3 4 5 6 6 7 8 8
10 9 9 9 8 8 7 7 7 6 6 5 5 5 5 5 5 4 4 4 4 4 3 3 3 2 2 2 2 1 1 1 1 1 2 3 4 5 6 7 7 8 8
11 11 10 10 9 8 7 7 7 7 6 6 5 5 5 5 5 4 4 4 4 3 3 3 3 2 2 2 1 1 1 2 2 2 3 4 5 5 6 7 7 7 7
12 11 11 10 10 9 8 8 7 6 6 5 5 5 4 4 4 5 4 4 4 4 4 3 3 2 2 2 2 1 2 2 2 2 2 3 4 5 6 6 6 7 7
11 11 11 10 10 10 10 9 8 8 7 6 6 6 6 5 4 4 4 5 4 4 4 3 3 3 2 2 2 2 2 2 2 2 3 3 4 5 6 6 6 7 7
Wind_Direction
354 345 324 311 305 304 299 299 304 307 314 319 323 325 326 321 316 301 287 281 279 280 284 273 272 274 270 266 264 266 263 261 261 262 263 262 259 261 264 265 266 268 272
338 337 326 312 300 295 296 294 292 293 304 303 304 307 310 305 300 297 291 283 277 281 281 276 273 275 273 269 270 266 262 261 261 263 264 263 262 263 265 265 266 266 268
330 327 325 318 306 297 291 288 289 289 292 293 290 292 300 297 293 290 284 281 279 281 277 278 278 277 276 273 270 267 263 262 263 264 265 266 265 266 266 266 266 264 266
319 318 318 310 304 296 289 284 281 283 284 282 282 283 288 290 289 280 279 279 279 280 276 279 277 277 276 275 272 271 267 264 265 267 268 268 266 266 268 268 267 266 267
312 308 308 306 298 294 292 286 282 281 280 276 277 277 278 280 282 280 280 277 276 277 275 277 275 276 276 276 274 272 271 269 267 269 269 270 269 266 268 269 269 268 269
305 301 299 300 299 294 296 291 283 278 278 275 273 275 275 275 274 276 278 276 280 277 274 273 273 273 275 276 274 271 270 270 269 269 269 271 272 270 268 268 268 269 269
300 297 292 296 296 293 291 288 282 279 276 274 271 274 273 272 270 274 277 277 279 275 271 267 270 272 272 274 274 272 271 272 271 270 271 272 272 272 271 270 269 268 267
297 295 290 290 291 290 289 287 283 278 275 274 272 273 273 275 276 275 275 277 280 277 275 273 270 274 277 275 275 275 271 271 273 275 275 274 273 273 271 270 270 269 268
294 293 294 292 290 290 287 285 282 279 275 272 273 273 272 272 272 271 268 270 277 277 276 277 274 277 282 281 277 276 277 277 276 277 277 275 272 273 272 270 271 271 270
295 293 297 294 292 290 288 288 282 278 276 274 272 273 273 272 271 266 264 265 268 271 272 273 273 279 286 285 281 279 278 281 282 283 279 275 273 274 273 272 272 272 271
296 295 295 293 293 292 289 285 281 280 276 273 273 275 277 275 270 267 262 262 265 269 271 270 270 274 278 280 284 285 283 282 286 288 283 278 277 278 277 276 276 275 274
299 297 294 290 289 288 290 287 281 281 277 274 274 276 277 272 268 267 264 263 263 264 267 266 268 269 269 275 282 285 284 285 288 293 293 286 283 280 280 281 281 279 278
302 297 296 294 293 287 286 287 281 280 280 279 274 273 272 266 264 264 264 264 264 261 262 260 263 265 267 275 279 280 282 284 286 292 295 293 290 288 287 285 284 282 280
304 299 298 297 293 291 288 281 280 282 282 283 280 276 271 265 261 264 267 261 257 254 255 254 258 261 265 270 275 276 279 282 289 290 293 295 291 290 291 291 291 291 287
304 301 299 297 291 290 284 277 274 280 282 285 281 276 276 267 262 266 265 259 252 245 251 255 252 254 257 260 266 272 277 284 288 288 292 297 295 296 297 298 299 297 293
300 297 297 296 289 283 279 281 278 280 279 279 277 272 274 268 264 266 266 263 253 244 250 242 240 240 249 255 266 270 277 286 291 297 299 298 303 307 302 303 306 302 293
294 290 295 297 292 285 285 290 290 285 284 277 272 270 270 268 264 263 265 255 245 242 241 228 224 228 243 253 257 261 273 291 301 303 303 301 304 307 315 313 310 306 300
288 284 289 290 288 285 288 292 294 289 283 279 271 269 267 259 254 255 253 244 237 235 225 219 220 231 239 246 248 258 274 287 295 308 315 318 313 319 324 319 311 311 309
290 286 282 282 281 278 285 289 292 289 282 282 276 268 262 245 242 246 246 235 227 222 210 212 223 233 236 237 242 263 271 281 296 317 328 329 332 333 329 327 325 324 322
285 286 282 276 274 272 277 282 286 289 281 276 270 259 250 240 241 237 229 224 209 202 201 212 223 225 235 244 255 263 272 298 319 330 330 331 335 336 336 338 335 332 332
281 283 284 277 271 270 269 271 276 282 274 265 262 255 242 231 235 228 214 204 196 193 195 203 204 210 225 247 249 254 283 317 334 341 343 344 345 344 342 337 333 333 334
279 281 281 282 272 267 265 261 266 269 261 255 252 240 228 222 223 216 213 201 194 192 192 197 201 212 228 226 231 248 305 334 336 358 359 349 350 351 348 343 339 342 341
278 278 277 277 275 268 261 254 254 257 248 246 243 231 224 220 221 222 210 193 182 181 189 199 209 216 223 226 235 246 279 299 321 334 338 344 349 351 350 347 349 350 345
277 274 273 271 269 262 254 252 248 247 244 241 234 223 221 220 216 216 200 188 186 185 194 206 207 205 212 222 247 262 282 285 297 315 319 330 337 339 341 343 344 346 346
276 273 269 267 262 258 253 246 241 239 235 230 226 216 214 215 217 218 204 194 194 194 196 202 207 210 218 235 255 276 298 298 299 299 314 328 337 341 342 345 348 349 347
273 270 266 264 260 253 249 242 237 230 226 225 223 219 217 218 216 213 205 199 201 199 201 205 215 222 235 245 255 281 300 306 310 308 316 324 336 345 349 350 353 357 358
Height
5880 5879 5879 5879 5878 5878 5878 5878 5877 5877 5877 5877 5877 5877 5877 5877 5878 5878 5878 5879 5879 5879 5880 5880 5880 5881 5881 5881 5882 5882 5882 5883 5883 5883 5884 5884 5884 5885 5885 5885 5886 5886 5886
5879 5879 5878 5878 5877 5877 5877 5877 5876 5876 5876 5876 5876 5876 5876 5876 5877 5877 5877 5877 5878 5878 5879 5879 5879 5879 5880 5880 5880 5881 5881 5881 5882 5882 5882 5882 5883 5883 5883 5884 5884 5884 5885
5878 5878 5878 5877 5877 5876 5876 5875 5875 5875 5875 5875 5875 5875 5875 5875 5875 5876 5876 5876 5877 5877 5878 5878 5878 5878 5878 5878 5879 5879 5879 5880 5880 5880 5881 5881 5881 5881 5881 5882 5882 5882 5883
5877 5877 5877 5876 5876 5875 5875 5874 5874 5874 5874 5874 5874 5874 5874 5874 5874 5874 5874 5875 5875 5876 5876 5876 5876 5876 5877 5877 5877 5877 5877 5878 5878 5878 5879 5879 5879 5879 5880 5880 5880 5880 5881
5877 5876 5876 5875 5874 5874 5873 5873 5873 5873 5873 5873 5873 5873 5873 5873 5873 5873 5873 5873 5874 5874 5875 5875 5875 5875 5875 5875 5875 5875 5875 5876 5876 5876 5876 5877 5877 5877 5877 5877 5878 5878 5878
5876 5875 5875 5874 5873 5873 5872 5872 5871 5871 5871 5871 5871 5871 5871 5871 5871 5871 5872 5872 5872 5873 5873 5873 5873 5873 5873 5873 5873 5873 5873 5873 5874 5874 5874 5874 5874 5875 5875 5875 5875 5876 5876
5874 5874 5873 5872 5872 5871 5871 5870 5869 5869 5869 5869 5869 5869 5869 5869 5869 5870 5870 5870 5870 5870 5871 5871 5871 5870 5870 5870 5871 5871 5871 5871 5872 5872 5872 5872 5872 5872 5872 5872 5873 5873 5873
5873 5872 5871 5871 5870 5869 5869 5868 5868 5868 5867 5868 5868 5868 5867 5867 5867 5867 5868 5868 5868 5869 5869 5869 5868 5868 5868 5868 5868 5869 5869 5869 5869 5869 5869 5869 5869 5870 5870 5870 5870 5870 5870
5871 5870 5869 5869 5868 5868 5867 5866 5866 5866 5866 5866 5866 5865 5865 5865 5865 5866 5866 5866 5867 5867 5867 5867 5867 5866 5866 5866 5866 5867 5867 5867 5867 5867 5867 5867 5867 5867 5867 5867 5867 5867 5868
5869 5868 5867 5867 5866 5866 5865 5865 5864 5864 5864 5864 5864 5863 5863 5863 5863 5863 5864 5864 5865 5865 5865 5865 5865 5865 5865 5865 5865 5865 5865 5865 5865 5865 5864 5864 5864 5864 5864 5864 5865 5865 5865
5867 5866 5865 5865 5864 5864 5863 5863 5862 5862 5862 5862 5862 5861 5861 5861 5861 5861 5862 5862 5863 5863 5863 5863 5863 5863 5863 5863 5863 5863 5863 5863 5863 5863 5862 5862 5862 5862 5862 5862 5862 5862 5862
5865 5864 5864 5863 5863 5862 5862 5861 5860 5860 5860 5860 5860 5859 5859 5859 5859 5860 5860 5860 5861 5861 5861 5861 5862 5862 5862 5862 5862 5862 5862 5861 5861 5861 5861 5860 5860 5860 5860 5860 5859 5860 5860
5863 5862 5862 5861 5861 5860 5860 5859 5859 5858 5858 5858 5858 5857 5857 5857 5858 5858 5858 5859 5859 5859 5860 5860 5860 5860 5861 5861 5861 5861 5861 5860 5860 5860 5860 5859 5859 5859 5858 5858 5857 5857 5857
5861 5861 5860 5860 5859 5859 5858 5858 5857 5856 5856 5856 5855 5855 5855 5855 5856 5856 5856 5856 5857 5857 5858 5858 5858 5859 5859 5859 5859 5859 5859 5859 5859 5859 5859 5858 5858 5857 5857 5856 5856 5855 5855
5860 5859 5859 5858 5857 5857 5857 5856 5856 5855 5855 5854 5854 5853 5854 5854 5854 5854 5854 5855 5855 5856 5856 5856 5857 5857 5858 5858 5858 5858 5858 5858 5858 5858 5858 5857 5857 5856 5855 5855 5854 5854 5853
5859 5858 5857 5857 5856 5855 5855 5855 5854 5853 5853 5852 5852 5852 5852 5852 5853 5853 5853 5853 5854 5854 5854 5855 5855 5856 5856 5857 5857 5857 5857 5857 5857 5857 5856 5856 5856 5855 5854 5853 5853 5852 5851
5857 5856 5855 5855 5854 5854 5853 5853 5852 5851 5851 5851 5851 5851 5851 5851 5851 5851 5852 5852 5852 5853 5853 5853 5854 5855 5855 5856 5856 5856 5856 5856 5856 5856 5855 5855 5855 5854 5853 5852 5852 5851 5850
5855 5854 5854 5853 5852 5852 5851 5851 5850 5850 5850 5849 5849 5849 5849 5849 5850 5850 5851 5851 5852 5852 5852 5853 5853 5854 5855 5855 5855 5855 5855 5855 5855 5855 5855 5854 5854 5853 5852 5852 5851 5850 5848
5853 5852 5852 5851 5851 5850 5850 5849 5849 5848 5848 5848 5848 5848 5848 5848 5849 5849 5850 5850 5851 5851 5852 5852 5853 5853 5854 5854 5855 5855 5855 5855 5855 5854 5854 5853 5853 5852 5852 5851 5850 5849 5848
5851 5850 5850 5849 5849 5849 5848 5848 5848 5847 5847 5847 5847 5847 5847 5847 5848 5848 5849 5849 5850 5851 5851 5852 5852 5853 5853 5854 5854 5854 5854 5854 5854 5854 5853 5853 5852 5852 5851 5850 5849 5848 5847
5849 5848 5848 5847 5847 5846 5847 5846 5846 5846 5846 5846 5846 5846 5846 5847 5847 5848 5848 5849 5849 5850 5851 5852 5852 5853 5853 5853 5854 5854 5854 5853 5854 5853 5853 5852 5852 5851 5851 5850 5849 5847 5846
5847 5846 5845 5845 5845 5844 5844 5845 5845 5844 5845 5845 5845 5845 5845 5846 5847 5847 5848 5848 5849 5850 5851 5851 5852 5853 5853 5853 5853 5854 5853 5854 5853 5853 5853 5852 5852 5851 5850 5849 5848 5847 5846
5844 5844 5843 5843 5843 5842 5842 5842 5843 5843 5843 5844 5844 5844 5845 5845 5846 5847 5847 5848 5849 5849 5850 5851 5852 5852 5852 5853 5853 5853 5853 5853 5853 5853 5852 5852 5851 5851 5850 5849 5848 5847 5845
5842 5841 5841 5840 5840 5840 5840 5841 5841 5842 5842 5843 5843 5843 5844 5845 5845 5846 5847 5848 5849 5849 5850 5851 5851 5852 5852 5852 5853 5853 5853 5853 5853 5852 5852 5852 5851 5851 5850 5849 5847 5846 5845
5838 5838 5838 5838 5838 5838 5838 5839 5839 5840 5841 5841 5842 5843 5843 5844 5845 5846 5847 5847 5848 5849 5850 5850 5851 5851 5852 5852 5852 5852 5852 5852 5852 5852 5852 5851 5851 5850 5849 5848 5847 5846 5844
5835 5835 5835 5835 5835 5836 5836 5837 5838 5838 5839 5840 5841 5842 5843 5843 5844 5845 5846 5847 5848 5849 5849 5850 5850 5851 5851 5852 5852 5852 5852 5852 5852 5852 5851 5851 5850 5850 5848 5847 5846 5845 5844